Volkel, Netherlands

1:13 AM CEST on July 26, 2016 (GMT +0200)
Volkel Air Base

Weather History for EHVK - June, 2013

Change the Weather History Date:

Sunday, June 16, 2013

  Actual Average Record
Temperature  
Mean Temperature 60 °F -  
Max Temperature 69 °F 70 °F 77 °F (1999)
Min Temperature 50 °F 52 °F 37 °F (2008)
Degree Days  
Heating Degree Days 5    
Growing Degree Days 10 (Base 50)    
Moisture  
Dew Point 44 °F    
Average Humidity 59    
Maximum Humidity 88    
Minimum Humidity 37    
Precipitation  
Precipitation 0.00 in - - ()
Sea Level Pressure  
Sea Level Pressure 29.97 in    
Wind  
Wind Speed 9 mph ()    
Max Wind Speed 17 mph    
Max Gust Speed -    
Visibility 6.2 miles    
Events Rain    
Averages and records for this station are not official NWS values.
T = Trace of Precipitation, MM = Missing Value Source: Averaged Metar Reports

Daily Weather History Graph

Daily Weather History Graph

Search for Another Location

Airport or City:

Trip Planner

Search our weather history database for the weather conditions in past years. The results will help you decide how hot, cold, wet, or windy it might be!

Date:

Astronomy

Jun. 16, 2013 Rise Set
Actual Time 5:18 AM CEST 9:57 PM CEST
Civil Twilight 4:30 AM CEST 10:45 PM CEST
Nautical Twilight 3:15 AM CEST 12:00 AM CEST
Astronomical Twilight 2:10 AM CEST 1:05 AM CEST
Moon 1:28 PM CEST (6/16) 1:07 AM CEST (6/16)
Length of Visible Light 18h 14m
Length of Day
16h 39m
Waxing Crescent, 47% of the Moon is Illuminated
Jun 16
Waxing Crescent
Jun 16
First Quarter
Jun 23
Full
Jun 30
Last Quarter
Jul 8
New

Hourly Weather History & Observations

Time (CEST) Temp. Dew Point Humidity Pressure Visibility Wind Dir Wind Speed Gust Speed Precip Events Conditions
12:25 AM 55.4 °F 41.0 °F 58% 29.92 in 6.2 mi SW 8.1 mph - N/A   Unknown
12:55 AM 53.6 °F 41.0 °F 62% 29.92 in 6.2 mi SW 10.4 mph - N/A   Unknown
1:25 AM 57.2 °F 42.8 °F 59% 29.92 in 6.2 mi WSW 17.3 mph - N/A   Unknown
1:55 AM 55.4 °F 42.8 °F 63% 29.95 in 6.2 mi SW 10.4 mph - N/A   Unknown
2:25 AM 55.4 °F 42.8 °F 63% 29.92 in 6.2 mi SW 12.7 mph - N/A   Unknown
2:55 AM 51.8 °F 42.8 °F 71% 29.95 in 6.2 mi SW 10.4 mph - N/A   Unknown
3:25 AM 51.8 °F 42.8 °F 71% 29.92 in 6.2 mi SW 10.4 mph - N/A   Unknown
3:55 AM 53.6 °F 42.8 °F 67% 29.92 in 6.2 mi SSW 11.5 mph - N/A   Unknown
4:25 AM 53.6 °F 42.8 °F 67% 29.92 in 6.2 mi SSW 11.5 mph - N/A   Mostly Cloudy
4:55 AM 53.6 °F 42.8 °F 67% 29.92 in 6.2 mi SW 11.5 mph - N/A   Overcast
5:25 AM 53.6 °F 42.8 °F 67% 29.92 in 6.2 mi SSW 12.7 mph - N/A   Overcast
5:55 AM 53.6 °F 42.8 °F 67% 29.95 in 6.2 mi SW 11.5 mph - N/A   Mostly Cloudy
6:25 AM 53.6 °F 44.6 °F 72% 29.95 in 6.2 mi SW 11.5 mph - N/A   Partly Cloudy
6:55 AM 53.6 °F 44.6 °F 72% 29.95 in 6.2 mi SW 13.8 mph - N/A   Overcast
7:25 AM 55.4 °F 44.6 °F 67% 29.95 in 6.2 mi SW 13.8 mph - N/A   Mostly Cloudy
7:55 AM 55.4 °F 44.6 °F 67% 29.95 in 6.2 mi SW 13.8 mph - N/A   Mostly Cloudy
8:25 AM 57.2 °F 44.6 °F 63% 29.95 in 6.2 mi SW 16.1 mph - N/A   Overcast
8:55 AM 59.0 °F 44.6 °F 59% 29.95 in 6.2 mi WSW 12.7 mph - N/A   Overcast
9:25 AM 60.8 °F 44.6 °F 55% 29.98 in 6.2 mi SW 15.0 mph - N/A   Overcast
9:55 AM 60.8 °F 44.6 °F 55% 29.98 in 6.2 mi WSW 10.4 mph - N/A   Overcast
10:25 AM 62.6 °F 44.6 °F 52% 29.98 in 6.2 mi SW 15.0 mph - N/A   Mostly Cloudy
10:37 AM 62.6 °F 42.8 °F 48% 29.98 in 6.2 mi WSW 11.5 mph - N/A   Scattered Clouds
10:55 AM 64.4 °F 44.6 °F 49% 29.98 in 6.2 mi WSW 12.7 mph - N/A   Scattered Clouds
11:25 AM 64.4 °F 42.8 °F 45% 29.98 in 6.2 mi WSW 12.7 mph - N/A   Mostly Cloudy
11:55 AM 66.2 °F 42.8 °F 43% 29.98 in 6.2 mi SW 13.8 mph - N/A   Partly Cloudy
12:25 PM 64.4 °F 41.0 °F 42% 29.98 in 6.2 mi WSW 13.8 mph - N/A   Overcast
12:41 PM 66.2 °F 42.8 °F 43% 29.98 in 6.2 mi WSW 12.7 mph - N/A   Overcast
12:55 PM 64.4 °F 42.8 °F 45% 29.98 in 6.2 mi WSW 12.7 mph - N/A   Overcast
1:25 PM 66.2 °F 41.0 °F 40% 29.98 in 6.2 mi WSW 11.5 mph - N/A   Overcast
1:55 PM 68.0 °F 41.0 °F 37% 29.98 in 6.2 mi WSW 11.5 mph - N/A   Overcast
2:18 PM 69.8 °F 42.8 °F 38% 29.98 in 6.2 mi WSW 12.7 mph - N/A   Overcast
2:25 PM 66.2 °F 39.2 °F 37% 29.98 in 6.2 mi WSW 11.5 mph - N/A   Overcast
2:55 PM 68.0 °F 41.0 °F 37% 29.98 in 6.2 mi WSW 11.5 mph - N/A   Overcast
3:25 PM 68.0 °F 41.0 °F 37% 29.98 in 6.2 mi West 8.1 mph - N/A   Overcast
3:55 PM 68.0 °F 41.0 °F 37% 29.98 in 6.2 mi WSW 6.9 mph - N/A   Overcast
4:25 PM 66.2 °F 42.8 °F 43% 30.01 in 6.2 mi West 6.9 mph - N/A   Overcast
4:55 PM 66.2 °F 42.8 °F 43% 29.98 in 6.2 mi West 5.8 mph - N/A   Scattered Clouds
5:25 PM 66.2 °F 42.8 °F 43% 29.98 in 6.2 mi WNW 3.5 mph - N/A   Mostly Cloudy
5:55 PM 66.2 °F 44.6 °F 46% 29.98 in 6.2 mi WSW 6.9 mph - N/A   Overcast
6:25 PM 64.4 °F 46.4 °F 52% 29.98 in 6.2 mi West 4.6 mph - N/A Rain Light Drizzle
6:55 PM 64.4 °F 46.4 °F 52% 29.98 in 6.2 mi NW 4.6 mph - N/A   Light Drizzle
7:25 PM 62.6 °F 48.2 °F 59% 30.01 in 6.2 mi North 3.5 mph - N/A   Mostly Cloudy
7:55 PM 62.6 °F 48.2 °F 59% 29.98 in 6.2 mi North 3.5 mph - N/A   Overcast
8:25 PM 62.6 °F 48.2 °F 59% 29.98 in 6.2 mi North 3.5 mph - N/A   Overcast
8:55 PM 60.8 °F 48.2 °F 63% 29.98 in 6.2 mi North 4.6 mph - N/A   Overcast
9:25 PM 60.8 °F 48.2 °F 63% 29.98 in 6.2 mi NNE 4.6 mph - N/A   Scattered Clouds
9:55 PM 57.2 °F 48.2 °F 72% 29.98 in 6.2 mi NE 3.5 mph - N/A   Unknown
10:25 PM 53.6 °F 48.2 °F 82% 30.01 in 6.2 mi North 1.2 mph - N/A   Unknown
10:30 PM 53.6 °F 48.2 °F 82% 30.01 in 4.3 mi North 1.2 mph - N/A   Haze
10:34 PM 53.6 °F 48.2 °F 82% 30.01 in 6.2 mi North 1.2 mph - N/A   Unknown
10:44 PM 51.8 °F 48.2 °F 88% 30.01 in 6.2 mi NNE 1.2 mph - N/A   Unknown
10:55 PM 51.8 °F 48.2 °F 88% 30.01 in 6.2 mi ENE 1.2 mph - N/A   Unknown
11:25 PM 51.8 °F 48.2 °F 88% 30.01 in 6.2 mi ENE 1.2 mph - N/A   Unknown
11:55 PM 50.0 °F 46.4 °F 87% 30.01 in 6.2 mi NNE 1.2 mph - N/A   Unknown